FW8347 Weather Reports


time (UTC)temp
C
wind
direction
speed
KPH
gust
KPH
rain 1hr
cm
rain 24hr
cm
rain mn
cm
humidity
%
barometer
mb
20260508133051 6 204 3.2 9.7 0.08 0.15 0.15 90 1012.5
20260508131547 5 221 4.8 16.1 0.05 0.13 0.13 87 1012.3
20260508130043 6 360 8.0 14.5 0.05 0.13 0.13 90 1012.5
20260508124545 6 360 4.8 9.7 0.00 0.08 0.08 89 1012.4
20260508123050 6 258 4.8 9.7 0.00 0.08 0.08 90 1012.2
20260508121547 6 360 4.8 11.3 0.00 0.08 0.08 90 1012.1
20260508120046 5 236 4.8 9.7 0.00 0.08 0.08 91 1012.0
20260508114545 5 202 3.2 9.7 0.00 0.08 0.08 91 1011.6
20260508113045 5 202 1.6 6.4 0.00 0.08 0.08 91 1011.4
20260508111546 5 202 4.8 6.4 0.00 0.08 0.08 92 1011.5
20260508110044 4 202 3.2 8.0 0.00 0.08 0.08 92 1011.2
20260508104545 4 202 3.2 6.4 0.00 0.08 0.08 92 1011.2
20260508103045 4 360 4.8 9.7 0.00 0.08 0.08 92 1011.4
20260508101541 4 213 6.4 9.7 0.00 0.08 0.08 92 1011.5
20260508100056 4 213 6.4 12.9 0.00 0.08 0.08 92 1011.6
20260508094549 4 209 8.0 14.5 0.00 0.08 0.08 92 1011.6
20260508093045 3 207 8.0 11.3 0.00 0.08 0.08 92 1011.6
20260508091547 3 202 6.4 11.3 0.00 0.08 0.08 92 1011.7
20260508090103 3 229 6.4 9.7 0.00 0.08 0.08 92 1011.7
20260508084547 3 208 6.4 9.7 0.00 0.08 0.08 92 1011.4
20260508083044 3 210 6.4 9.7 0.00 0.08 0.08 92 1011.4
20260508081559 4 205 4.8 8.0 0.00 0.08 0.08 91 1011.3
20260508080056 4 207 4.8 8.0 0.00 0.08 0.08 91 1011.3
20260508074548 5 191 6.4 12.9 0.00 0.08 0.08 91 1011.3
20260508073103 5 230 4.8 9.7 0.00 0.08 0.08 91 1011.4
20260508071544 5 360 4.8 9.7 0.00 0.08 0.08 90 1011.4
20260508070048 5 203 6.4 12.9 0.00 0.08 0.08 90 1011.5
20260508064547 5 360 4.8 12.9 0.00 0.08 0.08 90 1011.5
20260508063050 5 360 6.4 9.7 0.03 0.08 0.08 89 1011.5
20260508061549 5 360 8.0 14.5 0.03 0.08 0.08 88 1011.7
20260508060100 5 232 8.0 12.9 0.03 0.08 0.08 88 1011.6
20260508054546 6 257 6.4 19.3 0.03 0.08 0.08 87 1011.6
20260508053046 6 261 11.3 17.7 0.03 0.05 0.05 88 1011.7
20260508051602 6 248 12.9 17.7 0.03 0.05 0.05 88 1011.8
20260508050052 6 232 6.4 12.9 0.05 0.05 0.05 87 1011.7
20260508044550 6 223 8.0 12.9 0.05 0.05 0.05 86 1011.6
20260508043044 6 240 6.4 12.9 0.03 0.03 0.03 84 1011.6
20260508041547 6 240 14.5 25.7 0.03 0.03 0.03 83 1011.6
20260508040053 7 273 14.5 20.9 0.00 0.00 0.00 84 1011.5
20260508034551 6 279 9.7 19.3 0.00 0.00 0.00 83 1011.3
20260508033056 6 327 22.5 32.2 0.00 0.00 0.00 84 1011.2
20260508031554 7 360 25.7 37.0 0.00 0.00 0.00 84 1011.1
20260508030050 7 288 25.7 35.4 0.00 0.00 0.00 85 1011.2
20260508024610 6 300 16.1 24.1 0.00 0.00 0.00 82 1011.1
20260508023041 7 360 19.3 29.0 0.00 0.00 0.00 78 1011.1
20260508021549 7 302 14.5 17.7 0.00 0.00 0.00 78 1011.1
20260508020051 6 234 3.2 6.4 0.00 0.00 0.00 72 1010.9
20260508014550 6 234 1.6 6.4 0.00 0.00 0.00 71 1010.8
20260508013045 6 228 3.2 6.4 0.00 0.00 0.00 72 1010.8
20260508011548 6 223 3.2 6.4 0.00 0.00 0.00 74 1010.7
20260508010053 6 223 3.2 6.4 0.00 0.00 0.00 71 1010.6
20260508004552 7 264 0.0 4.8 0.00 0.00 0.00 68 1010.4
20260508003044 7 360 3.2 6.4 0.00 0.00 0.00 67 1010.4
20260508001548 7 360 1.6 8.0 0.00 0.00 0.00 66 1010.2
20260508000053 7 360 4.8 9.7 0.00 0.00 0.00 67 1010.1
20260507234545 7 360 4.8 9.7 0.00 0.00 0.00 67 1010.1
20260507233046 8 360 4.8 8.0 0.00 0.00 0.00 65 1010.0
20260507231546 8 360 4.8 6.4 0.00 0.00 0.00 65 1010.0
20260507230104 8 360 4.8 11.3 0.00 0.00 0.00 66 1010.1
20260507224553 8 360 3.2 6.4 0.00 0.00 0.00 66 1010.0
20260507223046 8 275 4.8 11.3 0.00 0.00 0.00 63 1010.0
20260507221547 8 275 4.8 11.3 0.00 0.00 0.00 64 1010.1
20260507220053 8 360 3.2 8.0 0.00 0.00 0.00 60 1010.1
20260507214545 8 360 1.6 6.4 0.00 0.00 0.00 60 1010.2
20260507213046 8 360 1.6 6.4 0.00 0.00 0.00 60 1010.2
20260507211546 8 360 0.0 4.8 0.00 0.00 0.00 64 1010.1
20260507204541 8 0 0.0 1.6 0.00 0.00 0.00 65 1010.2
20260507203112 8 0 0.0 4.8 0.00 0.00 0.00 68 1010.3
20260507201542 8 0 0.0 0.0 0.00 0.00 0.00 66 1010.4
20260507200041 7 360 1.6 6.4 0.00 0.00 0.00 67 1010.5
20260507194558 7 360 1.6 4.8 0.00 0.00 0.00 65 1010.5
20260507193046 7 360 1.6 6.4 0.00 0.00 0.00 64 1010.8
20260507191548 8 0 0.0 0.0 0.00 0.00 0.00 63 1010.9
20260507190047 7 0 0.0 6.4 0.00 0.00 0.00 70 1011.2
20260507184549 7 26 4.8 11.3 0.00 0.00 0.00 69 1011.3
20260507183045 7 19 4.8 8.0 0.00 0.00 0.00 70 1011.5
20260507181547 6 19 4.8 8.0 0.00 0.00 0.00 73 1011.6
20260507180045 7 11 4.8 8.0 0.00 0.00 0.00 71 1011.6
20260507174546 7 5 1.6 6.4 0.00 0.00 0.00 72 1011.6
20260507173115 6 11 6.4 12.9 0.00 0.00 0.00 73 1011.7
20260507171544 6 360 9.7 14.5 0.00 0.00 0.00 76 1011.9
20260507170049 7 5 9.7 14.5 0.00 0.00 0.00 74 1012.0
20260507164542 7 5 6.4 12.9 0.00 0.00 0.00 74 1012.1
20260507163046 7 5 8.0 12.9 0.00 0.00 0.00 73 1012.2
20260507161550 7 355 8.0 9.7 0.00 0.00 0.00 73 1012.4
20260507160053 7 345 8.0 12.9 0.00 0.00 0.00 72 1012.5
20260507154546 7 342 8.0 14.5 0.00 0.03 0.00 72 1012.7
20260507153041 7 340 12.9 16.1 0.00 0.03 0.00 71 1012.8
20260507151547 7 309 8.0 12.9 0.00 0.03 0.00 68 1012.7
20260507150047 7 293 4.8 9.7 0.00 0.03 0.00 69 1012.7
20260507144545 7 277 6.4 11.3 0.00 0.05 0.00 67 1012.8
20260507143058 7 277 4.8 11.3 0.00 0.05 0.00 70 1012.9
20260507141554 6 284 8.0 12.9 0.00 0.05 0.00 72 1013.0
20260507140041 6 304 11.3 17.7 0.00 0.05 0.00 75 1013.2
20260507134549 6 322 11.3 17.7 0.00 0.08 0.00 76 1013.2